Time,TemperatureF,DewpointF,PressureIn,WindDirection,WindDirectionDegrees,WindSpeedMPH,WindSpeedGustMPH,Humidity,HourlyPrecipIn,Conditions,Clouds,dailyrainin,SoftwareType,DateUTC
2013-08-26 09:00:00,86.2,72.9,29.58,SSE,158,0.9,0.9,64,0.00,,,0.00,WUHU216HW,2013-08-26 14:00:00,
2013-08-26 09:05:00,86.8,73.0,29.59,ESE,103,1.6,2.5,63,0.00,,,0.00,WUHU216HW,2013-08-26 14:05:00,
2013-08-26 09:10:00,86.9,72.6,29.58,ESE,102,1.2,2.5,62,0.00,,,0.00,WUHU216HW,2013-08-26 14:10:00,
2013-08-26 09:15:00,86.8,72.5,29.59,SSE,155,0.6,2.2,62,0.00,,,0.00,WUHU216HW,2013-08-26 14:15:00,
2013-08-26 09:20:00,87.1,72.3,29.59,WSW,248,1.3,2.2,61,0.00,,,0.00,WUHU216HW,2013-08-26 14:20:00,
2013-08-26 09:25:00,87.3,73.0,29.59,SSW,210,1.9,3.4,62,0.00,,,0.00,WUHU216HW,2013-08-26 14:25:00,
2013-08-26 09:30:00,88.4,73.1,29.59,WSW,248,1.1,3.4,60,0.00,,,0.00,WUHU216HW,2013-08-26 14:30:00,
2013-08-26 09:35:00,88.7,72.9,29.58,SW,225,1.6,2.5,59,0.00,,,0.00,WUHU216HW,2013-08-26 14:35:00,
2013-08-26 09:40:00,88.7,72.9,29.58,East,90,3.6,3.6,59,0.00,,,0.00,WUHU216HW,2013-08-26 14:40:00,
2013-08-26 09:45:00,88.7,72.9,29.58,South,188,1.6,3.6,59,0.00,,,0.00,WUHU216HW,2013-08-26 14:45:00,
2013-08-26 09:50:00,89.3,74.4,29.58,SE,135,0.9,2.7,61,0.00,,,0.00,WUHU216HW,2013-08-26 14:50:00,
2013-08-26 09:55:00,90.4,74.5,29.58,SSE,158,2.0,2.7,59,0.00,,,0.00,WUHU216HW,2013-08-26 14:55:00,
2013-08-26 10:00:00,90.9,74.4,29.58,South,173,0.6,3.4,58,0.00,,,0.00,WUHU216HW,2013-08-26 15:00:00,
2013-08-26 10:05:00,91.6,75.1,29.58,NNW,331,0.8,3.4,58,0.00,,,0.00,WUHU216HW,2013-08-26 15:05:00,
2013-08-26 10:10:00,92.2,74.6,29.58,SSE,161,1.8,3.4,56,0.00,,,0.00,WUHU216HW,2013-08-26 15:10:00,
2013-08-26 10:15:00,92.2,75.1,29.58,South,180,1.6,3.4,57,0.00,,,0.00,WUHU216HW,2013-08-26 15:15:00,
2013-08-26 10:20:00,92.2,74.6,29.58,SSW,204,1.3,2.9,56,0.00,,,0.00,WUHU216HW,2013-08-26 15:20:00,
2013-08-26 10:25:00,92.7,75.0,29.58,SSW,207,1.1,2.7,56,0.00,,,0.00,WUHU216HW,2013-08-26 15:25:00,
2013-08-26 10:30:00,92.9,75.8,29.58,SW,216,1.3,3.8,57,0.00,,,0.00,WUHU216HW,2013-08-26 15:30:00,
2013-08-26 10:35:00,93.2,75.5,29.58,SW,234,1.4,3.8,56,0.00,,,0.00,WUHU216HW,2013-08-26 15:35:00,
2013-08-26 10:40:00,93.4,75.7,29.58,SSE,147,1.2,3.4,56,0.00,,,0.00,WUHU216HW,2013-08-26 15:40:00,
2013-08-26 10:45:00,93.6,75.9,29.58,ESE,113,1.3,2.5,56,0.00,,,0.00,WUHU216HW,2013-08-26 15:45:00,
2013-08-26 10:50:00,94.1,75.8,29.58,South,190,1.3,2.5,55,0.00,,,0.00,WUHU216HW,2013-08-26 15:50:00,
2013-08-26 10:55:00,94.7,76.9,29.58,ESE,113,0.7,2.5,56,0.00,,,0.00,WUHU216HW,2013-08-26 15:55:00,
2013-08-26 11:00:00,95.2,76.3,29.58,ESE,113,2.2,2.5,54,0.00,,,0.00,WUHU216HW,2013-08-26 16:00:00,
2013-08-26 11:05:00,95.0,76.1,29.58,WSW,255,0.8,2.9,54,0.00,,,0.00,WUHU216HW,2013-08-26 16:05:00,
2013-08-26 11:10:00,95.8,77.4,29.58,SW,216,1.1,2.9,55,0.00,,,0.00,WUHU216HW,2013-08-26 16:10:00,
2013-08-26 11:15:00,96.5,76.9,29.58,WSW,248,1.8,2.9,53,0.00,,,0.00,WUHU216HW,2013-08-26 16:15:00,
2013-08-26 11:20:00,97.0,76.8,29.58,WSW,248,1.6,2.9,52,0.00,,,0.00,WUHU216HW,2013-08-26 16:20:00,
2013-08-26 11:25:00,97.2,77.0,29.58,SW,227,1.9,2.7,52,0.00,,,0.00,WUHU216HW,2013-08-26 16:25:00,
2013-08-26 11:30:00,96.8,76.0,29.58,SSE,165,1.9,3.4,51,0.00,,,0.00,WUHU216HW,2013-08-26 16:30:00,
2013-08-26 11:35:00,96.8,76.0,29.57,ENE,68,2.5,3.4,51,0.00,,,0.00,WUHU216HW,2013-08-26 16:35:00,
2013-08-26 11:40:00,96.7,75.9,29.57,SW,214,1.9,4.0,51,0.00,,,0.00,WUHU216HW,2013-08-26 16:40:00,
2013-08-26 11:45:00,97.2,77.0,29.57,WSW,248,2.0,4.0,52,0.00,,,0.00,WUHU216HW,2013-08-26 16:45:00,
2013-08-26 11:50:00,97.6,76.1,29.56,WSW,254,2.3,3.1,50,0.00,,,0.00,WUHU216HW,2013-08-26 16:50:00,
2013-08-26 11:55:00,97.9,77.0,29.56,SW,232,1.3,3.1,51,0.00,,,0.00,WUHU216HW,2013-08-26 16:55:00,
2013-08-26 12:00:00,98.6,77.7,29.56,South,191,0.8,3.1,51,0.00,,,0.00,WUHU216HW,2013-08-26 17:00:00,
2013-08-26 12:05:00,98.6,77.7,29.56,ESE,113,0.7,1.1,51,0.00,,,0.00,WUHU216HW,2013-08-26 17:05:00,
2013-08-26 22:00:00,76.7,71.2,29.43,SSW,203,0.4,0.4,83,0.00,,,0.00,WUHU216HW,2013-08-27 03:00:00,
2013-08-26 22:05:00,77.0,71.9,29.44,WSW,248,0.4,1.6,84,0.00,,,0.00,WUHU216HW,2013-08-27 03:05:00,
2013-08-26 22:10:00,76.9,71.4,29.44,SW,229,0.3,1.6,83,0.00,,,0.00,WUHU216HW,2013-08-27 03:10:00,
2013-08-26 22:15:00,76.7,71.6,29.44,ESE,113,0.3,0.4,84,0.00,,,0.00,WUHU216HW,2013-08-27 03:15:00,
2013-08-26 22:20:00,76.7,71.6,29.44,West,270,0.4,0.4,84,0.00,,,0.00,WUHU216HW,2013-08-27 03:20:00,
2013-08-26 22:25:00,76.7,71.6,29.44,West,270,0.4,0.4,84,0.00,,,0.00,WUHU216HW,2013-08-27 03:25:00,